Location: Nguturoa
(40.4167°S, 175.5500°E)
Time: 06:39:11
(UTC+00:00)

SJ 16-02 - Pass Details

Date: 13 December 2025
Orbit: 582 x 593 km, 75.0° (Epoch: 20 April)

Event Time Altitude Azimuth Distance (km) Brightness Sun altitude
Rises 02:00:21 0° 247° (WSW) 2,863 5.0 61.4°
Enters shadow 02:36:50 -59° 15° (NNE) 11,621 7.4 55.0°
Exits shadow 03:12:19 -46° 163° (SSE) 10,058 7.0 48.5°
